sat.trackr.live / text

‹ back to catalog

STARLINK-1493

NORAD 45759 · 2020-038AF

PAYLOAD ACTIVE UNKNOWN

§ Identity

Operator
Country
US
Launch date
2020-06-13
Launch site
AFETR
Launch vehicle
Mass (kg)
RCS (m²)

Purposes: comms

External: N2YO · Heavens-Above · Gunter

§ Orbital elements

Epoch: 2026-05-25T04:07:25.406112Z

Period
92.15 min
Inclination
53.0464°
Eccentricity
0.0007344
Mean motion
15.62748172 rev/d
Perigee alt
374.8 km
Apogee alt
384.7 km
Semi-major
6,757.9 km
B*
8.3012e-4
RAAN
193.7960°
Arg perigee
344.0497°
Mean anomaly
16.0284°
Rev number
32,855

§ Raw data

STARLINK-14931 45759U 20038AF  26145.17182183  .00076258  00000+0  83012-3 0  99962 45759  53.0464 193.7960 0007344 344.0497  16.0284 15.62748172328555

JSON: /api/v1/satellites/45759 · /tle

For live sub-satellite position, see the globe view (requires WebGL).

§ Visibility from observer

Set your observer location to see the next 7 days of passes ≥ 10°. The values pass through the URL so the page stays shareable.

No JS? Fill the form by hand. The geolocation button needs JavaScript.